Location: Newport
(44.6370°N, 124.0520°W)
Time: 23:01:46
(UTC-08:00)

Vanguard 2 - Visible Passes

Search period start: 19 January 2018 00:00
Search period end: 29 January 2018 00:00
Orbit: 553 x 2940 km, 32.9° (Epoch: 19 January)

Date Brightness Start Highest point End Pass type
(mag) Time Alt. Az. Time Alt. Az. Time Alt. Az.
19 Jan 11.1 02:26:40 15° ESE 02:26:40 15° ESE 02:29:51 10° ESE visible
19 Jan 10.0 04:28:06 34° SSW 04:31:23 40° SSE 04:44:37 10° E visible
19 Jan 10.5 06:30:01 10° WSW 06:41:17 51° S 06:57:25 10° ESE visible
20 Jan 10.8 02:43:52 19° ESE 02:43:52 19° ESE 02:49:00 10° E visible
20 Jan 9.9 04:45:17 34° SSW 04:49:09 44° SSE 05:02:51 10° E visible
20 Jan 10.6 06:47:56 10° WSW 06:59:15 49° S 07:15:18 10° ESE visible
21 Jan 10.6 03:01:01 24° SE 03:01:01 24° SE 03:07:41 10° E visible
21 Jan 9.9 05:02:27 32° SW 05:07:00 46° S 05:21:00 10° ESE visible
21 Jan 10.7 07:05:57 10° WSW 07:17:13 46° S 07:33:01 10° SE visible
22 Jan 10.3 03:18:08 29° SE 03:18:08 29° SE 03:26:08 10° E visible
22 Jan 9.9 05:19:34 28° SW 05:24:54 47° S 05:39:03 10° ESE visible
23 Jan 10.0 03:35:15 35° SE 03:35:15 35° SE 03:44:26 10° E visible
23 Jan 10.0 05:36:40 24° WSW 05:42:50 46° S 05:57:01 10° ESE visible
24 Jan 9.8 03:52:20 39° SSE 03:52:20 39° SSE 04:02:37 10° ESE visible
24 Jan 10.1 05:53:46 19° WSW 06:00:48 44° S 06:14:49 10° ESE visible
25 Jan 11.2 02:08:00 10° ESE 02:08:00 10° ESE 02:08:04 10° ESE visible
25 Jan 9.6 04:09:26 41° S 04:09:26 41° S 04:20:44 10° ESE visible
25 Jan 10.3 06:10:51 15° WSW 06:18:46 40° S 06:32:27 10° SE visible
26 Jan 11.0 02:25:06 13° ESE 02:25:06 13° ESE 02:26:28 10° ESE visible
26 Jan 9.5 04:26:31 41° S 04:27:11 41° S 04:38:44 10° ESE visible
26 Jan 10.5 06:27:57 11° WSW 06:36:44 35° SSW 06:49:50 10° SE visible
27 Jan 10.8 02:42:12 17° ESE 02:42:12 17° ESE 02:44:44 10° ESE visible
27 Jan 9.5 04:43:37 38° SSW 04:45:06 40° S 04:56:37 10° ESE visible
27 Jan 10.6 06:46:02 10° WSW 06:54:42 30° SSW 07:06:55 10° SSE visible
28 Jan 10.6 02:59:18 20° ESE 02:59:18 20° ESE 03:02:51 10° ESE visible
28 Jan 9.6 05:00:44 32° SW 05:03:03 37° S 05:14:19 10° SE visible
28 Jan 10.7 07:04:34 10° WSW 07:12:40 25° SSW 07:23:34 10° SSE visible
